User: anonymous
Location: Unspecified
(0.0000°N, 0.0000°E)
Time: 12:23:50
(UTC+00:00)
Language:

OPTUS D3 - Orbit

View from above orbital plane
View from above orbital plane
View from above satellite
View from above satellite

Ground track
Ground track

The orbit data is extracted from the following two-line orbital elements,

1 35756U 09044B   14106.77053667 -.00000154  00000-0  10000-3 0  9980
2 35756 000.0612 020.8996 0004248 355.4359 261.8722 01.00270982 17075
Epoch (UTC): 16 April 2014 18:29:34
Eccentricity: 0.0004248
inclination: 0.0612°
perigee height: 35768 km
apogee height: 35804 km
right ascension of ascending node: 20.8996°
argument of perigee: 355.4359°
revolutions per day: 1.00270982
mean anomaly at epoch: 261.8722°
orbit number at epoch: 1707

The dashed part of the orbit path shows where the satellite is in the earth's shadow,  

DLR